This is the latest recevied weather packets stored in our database for station/object AG1T-1. If no packets are shown the sender has not sent any weather packets the latest 10 day(s).
| Time | Temp. | Humidity | Pressure | Rain* | Wind** | Luminosity | Snow |
|---|---|---|---|---|---|---|---|
| 1777947003 | 17.78° C | 37% | 1008.9 hPa | 0 mm | - | 21 W/m² | - |
| 1777946403 | 17.78° C | 37% | 1008.9 hPa | 0 mm | - | 28 W/m² | - |
| 1777945803 | 18.33° C | 37% | 1008.8 hPa | 0 mm | - | 35 W/m² | - |
| 1777945203 | 18.33° C | 37% | 1009 hPa | 0 mm | - | 77 W/m² | - |
| 1777944603 | 18.33° C | 38% | 1008.9 hPa | 0 mm | - | 49 W/m² | - |
| 1777944003 | 18.33° C | 37% | 1008.9 hPa | 0 mm | - | 51 W/m² | - |
| 1777943403 | 18.89° C | 37% | 1009.1 hPa | 0 mm | - | 54 W/m² | - |
| 1777942803 | 18.89° C | 37% | 1009.1 hPa | 0 mm | - | 60 W/m² | - |
| 1777942203 | 18.89° C | 36% | 1009.3 hPa | 0 mm | - | 62 W/m² | - |
| 1777941603 | 18.89° C | 36% | 1009.6 hPa | 0 mm | - | 63 W/m² | - |
| 1777941003 | 19.44° C | 33% | 1009.7 hPa | 0 mm | - | 69 W/m² | - |
| 1777940403 | 20° C | 33% | 1009.8 hPa | 0 mm | - | 58 W/m² | - |
| 1777939803 | 20.56° C | 30% | 1009.9 hPa | 0 mm | - | 56 W/m² | - |
| 1777939203 | 21.11° C | 29% | 1009.7 hPa | 0 mm | - | 56 W/m² | - |
| 1777938603 | 21.67° C | 29% | 1009.7 hPa | 0 mm | - | 58 W/m² | - |
| 1777938003 | 22.78° C | 29% | 1009.5 hPa | 0 mm | - | 58 W/m² | - |
| 1777937403 | 23.89° C | 27% | 1009.4 hPa | 0 mm | - | 526 W/m² | - |
| 1777936803 | 25° C | 25% | 1009.5 hPa | 0 mm | - | 566 W/m² | - |
| 1777936203 | 25° C | 20% | 1009.2 hPa | 0 mm | - | 594 W/m² | - |
| 1777935603 | 25° C | 20% | 1009.2 hPa | 0 mm | - | 612 W/m² | - |
| 1777935003 | 25° C | 20% | 1009.3 hPa | 0 mm | - | 640 W/m² | - |
| 1777934403 | 24.44° C | 20% | 1009.3 hPa | 0 mm | - | 661 W/m² | - |
| 1777933803 | 24.44° C | 22% | 1009.1 hPa | 0 mm | - | 687 W/m² | - |
| 1777933203 | 24.44° C | 22% | 1009.2 hPa | 0 mm | - | 710 W/m² | - |
| 1777932603 | 24.44° C | 22% | 1009.3 hPa | 0 mm | - | 733 W/m² | - |
* Rain latest hour (hover to see other rain measurements)
** Current wind speed in m/s (hover to see current wind gust speed)